Franklin, PA

7:42 AM EST on November 13, 2019 (GMT -0500)
Venango Regional

Weather History for KFKL - June, 2019

Change the Weather History Date:

Monday, June 10, 2019

  Actual Average Record
Temperature  
Mean Temperature 64 °F -  
Max Temperature 73 °F 78 °F 93 °F (1933)
Min Temperature 55 °F 51 °F 36 °F (1988)
Degree Days  
Heating Degree Days 1    
Growing Degree Days 14 (Base 50)    
Moisture  
Dew Point 60 °F    
Average Humidity 86    
Maximum Humidity 100    
Minimum Humidity 61    
Precipitation  
Precipitation 0.58 in - - ()
Sea Level Pressure  
Sea Level Pressure 29.92 in    
Wind  
Wind Speed 11 mph (South)    
Max Wind Speed 17 mph    
Max Gust Speed 30 mph    
Visibility 9 miles    
Events Rain , Thunderstorm    
Averages and records for this station are not official NWS values.
T = Trace of Precipitation, MM = Missing Value Source: NWS Daily Summary

Daily Weather History Graph

Daily Weather History Graph

Search for Another Location

Airport or City:

Astronomy

Jun. 10, 2019 Rise Set
Actual Time 5:45 AM EDT 8:52 PM EDT
Civil Twilight 5:12 AM EDT 9:25 PM EDT
Nautical Twilight 4:29 AM EDT 10:09 PM EDT
Astronomical Twilight 3:37 AM EDT 11:00 PM EDT
Moon 1:35 PM EDT (6/10) 2:02 AM EDT (6/10)
Length of Visible Light 16h 13m
Length of Day
15h 06m
First Quarter, 55% of the Moon is Illuminated
Jun 10
First Quarter
Jun 17
Full
Jun 25
Last Quarter
Jul 2
New
Jul 9
First Quarter

Hourly Weather History & Observations

Time (EDT) Temp. Dew Point Humidity Pressure Visibility Wind Dir Wind Speed Gust Speed Precip Events Conditions
12:56 AM 66.9 °F 53.1 °F 61% 30.07 in 10.0 mi SE 11.5 mph - 0.00 in Rain Light Rain
1:56 AM 66.9 °F 53.1 °F 61% 30.06 in 10.0 mi SE 12.7 mph - 0.00 in   Overcast
2:56 AM 66.0 °F 53.1 °F 63% 30.04 in 10.0 mi SE 10.4 mph - 0.00 in Rain Light Rain
3:56 AM 60.1 °F 55.9 °F 86% 30.03 in 10.0 mi SE 9.2 mph - 0.01 in Rain Light Rain
4:56 AM 57.9 °F 55.9 °F 93% 30.02 in 10.0 mi ESE 9.2 mph - 0.03 in Rain Light Rain
5:56 AM 57.0 °F 55.0 °F 93% 30.01 in 10.0 mi ESE 9.2 mph - 0.02 in Rain Light Rain
6:56 AM 57.0 °F 55.0 °F 93% 30.01 in 10.0 mi ESE 10.4 mph - 0.00 in   Overcast
7:56 AM 57.9 °F 55.0 °F 90% 29.99 in 10.0 mi ESE 6.9 mph - N/A   Overcast
8:56 AM 61.0 °F 57.0 °F 87% 29.99 in 10.0 mi ESE 10.4 mph - N/A   Overcast
9:56 AM 63.0 °F 57.9 °F 84% 29.97 in 10.0 mi SE 12.7 mph - N/A   Mostly Cloudy
10:56 AM 66.0 °F 60.1 °F 81% 29.95 in 10.0 mi SE 10.4 mph - N/A   Scattered Clouds
11:56 AM 70.0 °F 62.1 °F 76% 29.93 in 10.0 mi SE 12.7 mph 17.3 mph N/A   Scattered Clouds
12:56 PM 72.0 °F 63.0 °F 73% 29.90 in 10.0 mi South 8.1 mph - N/A   Partly Cloudy
1:11 PM 73.4 °F 64.4 °F 73% - 10.0 mi North - - N/A   Mostly Cloudy
1:56 PM 72.0 °F 64.0 °F 76% 29.88 in 10.0 mi South 10.4 mph - N/A   Overcast
2:56 PM 72.0 °F 64.9 °F 78% 29.86 in 10.0 mi South 9.2 mph - 0.00 in Rain Light Rain
3:56 PM 71.1 °F 66.0 °F 84% 29.84 in 10.0 mi SSE 9.2 mph - 0.00 in Rain Light Rain
4:35 PM 71.6 °F 66.2 °F 83% 29.84 in 10.0 mi SSE 9.2 mph - 0.00 in   Overcast
4:49 PM 71.6 °F 66.2 °F 83% 29.83 in 9.0 mi SSE 5.8 mph - 0.00 in Rain Rain
4:56 PM 70.0 °F 66.9 °F 90% 29.82 in 9.0 mi SSE 6.9 mph - 0.00 in Rain Light Rain
5:03 PM 69.8 °F 66.2 °F 88% 29.83 in 7.0 mi SSE 6.9 mph - 0.01 in Rain Light Rain
5:18 PM 69.8 °F 66.2 °F 88% 29.82 in 5.0 mi South 4.6 mph - 0.04 in Rain Light Rain
5:25 PM 69.8 °F 66.2 °F 88% 29.85 in 4.0 mi WSW 16.1 mph 28.8 mph 0.17 in Rain , Thunderstorm Rain
5:31 PM 66.2 °F 64.4 °F 94% 29.84 in 1.8 mi WSW 10.4 mph 28.8 mph 0.34 in Rain , Thunderstorm Heavy Rain
5:36 PM 66.2 °F 64.4 °F 94% 29.84 in 2.5 mi WSW 13.8 mph - 0.39 in Rain Heavy Rain
5:43 PM 66.2 °F 64.4 °F 94% 29.84 in 6.0 mi WSW 11.5 mph - 0.42 in Rain Rain
5:54 PM 66.2 °F 64.4 °F 94% 29.84 in 10.0 mi SW 9.2 mph - 0.44 in Rain , Thunderstorm Rain
5:56 PM 66.9 °F 64.9 °F 93% 29.83 in 10.0 mi WSW 9.2 mph - 0.45 in Rain , Thunderstorm Rain
6:22 PM 64.4 °F 64.4 °F 100% 29.86 in 10.0 mi WNW 12.7 mph 26.5 mph 0.04 in Rain Light Rain
6:29 PM 64.4 °F 62.6 °F 94% 29.86 in 10.0 mi NW 15.0 mph 28.8 mph 0.05 in Rain Light Rain
6:56 PM 62.1 °F 60.1 °F 93% 29.89 in 10.0 mi NW 12.7 mph 24.2 mph 0.06 in Rain Light Rain
7:56 PM 60.1 °F 59.0 °F 96% 29.93 in 10.0 mi NW 9.2 mph 17.3 mph 0.01 in   Overcast
8:41 PM 57.2 °F 57.2 °F 100% 29.96 in 4.0 mi NW 12.7 mph 29.9 mph 0.00 in Rain Light Rain
8:56 PM 57.9 °F 55.9 °F 93% 29.97 in 7.0 mi NW 17.3 mph 25.3 mph 0.00 in Rain Light Rain
9:13 PM 57.2 °F 55.4 °F 94% 29.98 in 6.0 mi NW 11.5 mph 23.0 mph 0.00 in Rain Light Rain
9:56 PM 55.0 °F 54.0 °F 96% 30.01 in 6.0 mi NW 10.4 mph 16.1 mph 0.00 in Rain Light Rain
10:56 PM 55.0 °F 53.1 °F 93% 30.03 in 10.0 mi NW 11.5 mph 19.6 mph 0.00 in Rain Light Rain